TFFFTLPC

Guest
Details From TFFF - Martinique/Aime Cesaire Intl
To TLPC - Castries/George F L Charles
Flight Number -
Tags generated
Created
Modified
Stats Distance 34 nm / 64 km
Max Altitude 2,100 ft / 640 m
Waypoints 3
Social Downloads 0
Likes 0
Share VATSIM

Download

Looking for another format? Having issues loading an existing format? Contact us
Advertisement - Login to hide

Notes

Basic altitude profile: - Ascent Rate: 2000ft/min - Ascent Speed: 240kts - Cruise Altitude: 20000ft - Cruise Speed: 400kts - Descent Rate: 1600ft/min - Descent Speed: 210kts Options: - Use NATs: yes - Use PACOTS: yes - Use low airways: yes - Use high airways: yes

Route

TFFF KISES TLPC

ID Type Via Altitude Latitude Longitude Leg Dist Tot Dist Heading (true) Name
O TFFF APT - 0 ft / 0 m 14.59103˚ -61.00317˚ - 0 nm - Martinique/Aime Cesaire Intl
KISES FIX - 2,100 ft / 640 m 14.18633˚ -61.00119˚ 24 nm 24 nm 180° / 180° -
O TLPC APT - 0 ft / 0 m 14.01970˚ -60.99339˚ 10 nm 34 nm 177° / 177° Castries/George F L Charles

Altitude Profile

Advertisement - Login to hide

TFFF

Details ICAO TFFF (FDF)
Name Martinique/Aime Cesaire Intl
Region France (Guadeloupe, Martinique, Saint Barthélemy, Saint Martin)
Timezone America/Martinique (UTC-4.0)
Stats Elevation 16 ft / 5 m (AMSL)
Location 14.591032° -61.003173°
Runways 1
Magnetic Variation 15.072° W

METAR

TFFF 260430Z AUTO 09008KT 9999 FEW028 SCT033 OVC052 26/22 Q1015 TEMPO 4000 SHRA BKN018TCU

Decode

TAF

TAF TFFF 252200Z 2600/2624 10005KT 9999 SCT025 TEMPO 2600/2624 4000 SHRA BKN018TCU BECMG 2610/2612 10015KT PROB30 TEMPO 2612/2620 09015G25KT 1000 TSRA SCT005 BKN015CB

Decode

Departure Runways

ID Width Length Bearing (true) Bearing (mag) Surface Threshold Offset Overrun Length
09 148 ft / 45 m 9,852 ft / 3,003 m 79.93° 95.00° Asphalt 0 ft / 0 m 0 ft / 0 m
27 148 ft / 45 m 9,852 ft / 3,003 m 259.94° 275.01° Asphalt 820 ft / 250 m 948 ft / 289 m

TLPC

Details ICAO TLPC (SLU)
Name Castries/George F L Charles
Region Saint Lucia
Timezone America/St_Lucia (UTC-4.0)
Stats Elevation 22 ft / 7 m (AMSL)
Location 14.019704° -60.993394°
Runways 1
Magnetic Variation 15.087° W

METAR

Not found

TAF

TAF TLPC 252300Z 2600/2624 10012KT 9999 SCT025 TEMPO 2606/2618 5000 SHRA FEW017TCU BKN022 BKN038

Decode

Destination Runways

ID Width Length Bearing (true) Bearing (mag) Surface Threshold Offset Overrun Length
09 148 ft / 45 m 5,731 ft / 1,747 m 75.34° 90.43° Asphalt 400 ft / 122 m 0 ft / 0 m
27 148 ft / 45 m 5,731 ft / 1,747 m 255.34° 270.43° Asphalt 925 ft / 282 m 0 ft / 0 m

Popular Alternatives